Connexion S'enregistrer

Connexion à votre compte

Identifiant
Mot de passe
Maintenir la connexion active sur ce site

Créer un compte

Pour valider ce formulaire, vous devez remplir tous les champs.
Nom
Identifiant
Mot de passe
Répétez le mot de passe
Adresse e-mail
Répétez l'adresse e-mail

Veuillez saisir l'adresse e-mail associée à votre compte d'utilisateur. Votre identifiant vous sera envoyé à cette adresse.

Nous contacter

 Téléphone : +33 (0)4 79 54 41 81

Coordonnées détaillées et accès : cliquez ici

 
LFLB °C
    Ferienhaus Ostsee
[source: ADDS]
METAR
LFLB 170930Z AUTO 00000KT 3200 BR SCT006 BKN017 BKN045 01/01 Q1023 TEMPO 2500 -RADZ BKN012 OVC020 =
TAF LFLB 170800Z 1709/1809 VRB05KT 9999 BKN035 TEMPO 1709/1715 4000 -RA BKN012 OVC020 PROB40 TEMPO 1709/1712 2500 -RADZ PROB40 TEMPO 1715/1724 36010KT PROB40 1800/1809 CAVOK PROB30 1803/1808 0800 FG VV///
TAF
TAF LFLB 170800Z 1709/1809 VRB05KT 9999 BKN035 TEMPO 1709/1715 4000 -RA BKN012 OVC020 PROB40 TEMPO 1709/1712 2500 -RADZ PROB40 TEMPO 1715/1724 36010KT PROB40 1800/1809 CAVOK PROB30 1803/1808 0800 FG VV/// =
SR / SS: 07:11 / 16:21 UTC (Lever/Coucher du soleil le 2021-01-17)
JSN Boot template designed by JoomlaShine.com